Punta Gorda, FL

2:47 AM EST on December 14, 2019 (GMT -0500)
Charlotte County

Weather History for KPGD - September, 2019

Change the Weather History Date:

Tuesday, September 17, 2019

  Actual Average Record
Temperature  
Mean Temperature 84 °F -  
Max Temperature 95 °F 87 °F 96 °F (2018)
Min Temperature 75 °F 71 °F 68 °F (2001)
Cooling Degree Days 19    
Growing Degree Days 34 (Base 50)    
Moisture  
Dew Point 73 °F    
Average Humidity 75    
Maximum Humidity 100    
Minimum Humidity 43    
Precipitation  
Precipitation 0.00 in - - ()
Sea Level Pressure  
Sea Level Pressure 29.96 in    
Wind  
Wind Speed 5 mph (North)    
Max Wind Speed 13 mph    
Max Gust Speed 20 mph    
Visibility 10 miles    
Events      
Averages and records for this station are not official NWS values.
T = Trace of Precipitation, MM = Missing Value Source: NWS Daily Summary

Daily Weather History Graph

Daily Weather History Graph

Search for Another Location

Airport or City:

Astronomy

Sep. 17, 2019 Rise Set
Actual Time 7:14 AM EDT 7:30 PM EDT
Civil Twilight 6:50 AM EDT 7:53 PM EDT
Nautical Twilight 6:23 AM EDT 8:20 PM EDT
Astronomical Twilight 5:56 AM EDT 8:48 PM EDT
Moon 9:49 PM EDT (9/17) 10:03 AM EDT (9/17)
Length of Visible Light 13h 02m
Length of Day
12h 16m
Waning Gibbous, 89% of the Moon is Illuminated
Sep 17
Waning Gibbous
Sep 21
Last Quarter
Sep 28
New
Oct 5
First Quarter
Oct 13
Full

Hourly Weather History & Observations

Time (EDT) Temp. Heat Index Dew Point Humidity Pressure Visibility Wind Dir Wind Speed Gust Speed Precip Events Conditions
12:53 AM 79.0 °F - 77.0 °F 94% 29.95 in 10.0 mi North 6.9 mph - N/A   Clear
1:53 AM 75.9 °F - 75.9 °F 100% 29.95 in 10.0 mi NE 4.6 mph - N/A   Clear
2:53 AM 75.0 °F - 75.0 °F 100% 29.94 in 10.0 mi NE 4.6 mph - N/A   Clear
3:53 AM 75.0 °F - 75.0 °F 100% 29.93 in 10.0 mi NNE 3.5 mph - N/A   Clear
4:53 AM 75.0 °F - 75.0 °F 100% 29.93 in 10.0 mi Calm Calm - N/A   Clear
5:53 AM 75.0 °F - 73.9 °F 96% 29.94 in 9.0 mi Calm Calm - N/A   Clear
6:53 AM 75.0 °F - 75.0 °F 100% 29.97 in 10.0 mi NW 3.5 mph - N/A   Clear
7:53 AM 75.0 °F - 75.0 °F 100% 29.98 in 7.0 mi Calm Calm - N/A   Clear
8:53 AM 81.0 °F 87.9 °F 77.0 °F 88% 30.00 in 10.0 mi NW 3.5 mph - N/A   Clear
9:53 AM 84.0 °F 89.0 °F 71.1 °F 65% 30.01 in 10.0 mi Variable 3.5 mph - N/A   Clear
10:53 AM 87.1 °F 92.8 °F 71.1 °F 59% 30.01 in 10.0 mi North 4.6 mph - N/A   Clear
11:53 AM 89.1 °F 94.1 °F 70.0 °F 53% 30.00 in 10.0 mi North 8.1 mph - N/A   Partly Cloudy
12:53 PM 90.0 °F 94.5 °F 69.1 °F 50% 29.99 in 10.0 mi NW 8.1 mph - N/A   Partly Cloudy
1:53 PM 91.9 °F 96.9 °F 69.1 °F 47% 29.96 in 10.0 mi NNW 8.1 mph - N/A   Clear
2:53 PM 93.0 °F 97.4 °F 68.0 °F 44% 29.94 in 10.0 mi North 12.7 mph 19.6 mph N/A   Clear
3:53 PM 93.9 °F 98.6 °F 68.0 °F 43% 29.92 in 10.0 mi NNE 11.5 mph - N/A   Scattered Clouds
4:53 PM 91.9 °F 95.4 °F 66.9 °F 44% 29.91 in 10.0 mi North 5.8 mph - N/A   Partly Cloudy
5:53 PM 93.0 °F 97.4 °F 68.0 °F 44% 29.91 in 10.0 mi North 5.8 mph - N/A   Partly Cloudy
6:53 PM 87.1 °F 95.4 °F 73.9 °F 65% 29.91 in 10.0 mi NW 9.2 mph - N/A   Mostly Cloudy
7:53 PM 84.9 °F 91.4 °F 73.0 °F 67% 29.92 in 10.0 mi NW 8.1 mph - N/A   Clear
8:53 PM 82.9 °F 88.8 °F 73.0 °F 72% 29.94 in 10.0 mi NNW 6.9 mph - N/A   Clear
9:53 PM 81.0 °F 86.7 °F 75.0 °F 82% 29.96 in 10.0 mi NNW 6.9 mph - N/A   Clear
10:53 PM 80.1 °F 85.1 °F 75.0 °F 85% 29.98 in 10.0 mi North 8.1 mph - N/A   Clear
11:53 PM 75.9 °F - 75.0 °F 97% 29.98 in 10.0 mi NE 4.6 mph - N/A   Clear